TimeEST,TemperatureF,Dew PointF,Humidity,Sea Level PressureIn,VisibilityMPH,Wind Direction,Wind SpeedMPH,Gust SpeedMPH,PrecipitationIn,Events,Conditions,WindDirDegrees,DateUTC
12:54 AM,16.0,3.9,59,30.16,10.0,Calm,Calm,-,N/A,,Clear,0,2013-02-19 05:54:00
1:54 AM,15.1,6.1,68,30.15,10.0,Calm,Calm,-,N/A,,Mostly Cloudy,0,2013-02-19 06:54:00
2:54 AM,17.1,7.0,65,30.12,10.0,Calm,Calm,-,N/A,,Overcast,0,2013-02-19 07:54:00
3:54 AM,19.0,7.0,59,30.10,10.0,Calm,Calm,-,N/A,,Overcast,0,2013-02-19 08:54:00
4:54 AM,18.0,9.0,68,30.07,10.0,Calm,Calm,-,N/A,,Partly Cloudy,0,2013-02-19 09:54:00
5:54 AM,17.1,8.1,68,30.05,10.0,Calm,Calm,-,N/A,,Scattered Clouds,0,2013-02-19 10:54:00
6:54 AM,17.1,7.0,65,30.02,10.0,Calm,Calm,-,N/A,,Clear,0,2013-02-19 11:54:00
7:54 AM,21.9,8.1,55,30.01,10.0,Calm,Calm,-,N/A,,Clear,0,2013-02-19 12:54:00
8:54 AM,28.0,9.0,45,29.98,10.0,Calm,Calm,-,N/A,,Clear,0,2013-02-19 13:54:00
9:54 AM,37.0,14.0,39,29.93,10.0,Calm,Calm,-,N/A,,Clear,0,2013-02-19 14:54:00
10:54 AM,45.0,19.0,36,29.90,10.0,SSW,4.6,-,N/A,,Clear,200,2013-02-19 15:54:00
11:54 AM,44.1,19.9,38,29.87,10.0,South,11.5,25.3,N/A,,Clear,170,2013-02-19 16:54:00
1:54 PM,45.0,19.9,37,29.78,10.0,SSE,12.7,35.7,N/A,,Overcast,160,2013-02-19 18:54:00
2:54 PM,42.1,26.1,53,29.77,10.0,South,17.3,26.5,N/A,,Overcast,180,2013-02-19 19:54:00
3:54 PM,39.9,30.9,70,29.73,10.0,South,17.3,24.2,N/A,,Overcast,180,2013-02-19 20:54:00
4:36 PM,39.2,32.0,75,29.68,10.0,South,16.1,21.9,0.00,Rain,Light Rain,170,2013-02-19 21:36:00
4:54 PM,39.0,32.0,76,29.70,10.0,South,11.5,23.0,0.00,Rain,Light Rain,190,2013-02-19 21:54:00
5:54 PM,37.9,33.1,83,29.68,10.0,South,10.4,19.6,0.02,Rain,Light Rain,170,2013-02-19 22:54:00
6:19 PM,37.4,33.8,87,29.66,9.0,Variable,3.5,17.3,0.01,Rain,Light Rain,0,2013-02-19 23:19:00
7:31 PM,37.4,33.8,87,29.63,9.0,Calm,Calm,-,0.02,Rain,Light Rain,0,2013-02-20 00:31:00
7:54 PM,37.9,33.1,83,29.65,10.0,Calm,Calm,-,0.02,Rain,Light Rain,0,2013-02-20 00:54:00
8:54 PM,37.0,33.1,86,29.64,6.0,SW,3.5,-,0.07,Rain,Light Rain,220,2013-02-20 01:54:00
9:12 PM,37.4,33.8,87,29.61,5.0,Calm,Calm,-,0.03,Rain,Light Rain,0,2013-02-20 02:12:00
9:54 PM,35.1,32.0,89,29.63,5.0,SSW,3.5,-,0.10,Snow,Light Snow,210,2013-02-20 02:54:00
10:11 PM,35.6,32.0,87,29.61,8.0,Calm,Calm,-,0.01,Rain,Light Rain,0,2013-02-20 03:11:00
10:54 PM,34.0,32.0,92,29.60,4.0,Variable,3.5,-,0.02,Rain,Light Rain,0,2013-02-20 03:54:00
11:01 PM,33.8,32.0,93,29.59,4.0,Calm,Calm,-,0.01,Rain,Light Rain,0,2013-02-20 04:01:00
11:15 PM,33.8,32.0,93,29.59,2.5,NNW,3.5,-,0.02,Rain,Light Rain,330,2013-02-20 04:15:00
11:21 PM,33.8,30.2,87,29.59,0.8,NNW,3.5,-,0.03,Snow,Light Snow,330,2013-02-20 04:21:00
11:35 PM,33.8,30.2,87,29.60,0.8,WSW,6.9,-,0.05,Snow,Light Snow,250,2013-02-20 04:35:00
11:42 PM,33.8,30.2,87,29.60,1.5,West,12.7,18.4,0.06,Snow,Light Snow,260,2013-02-20 04:42:00
11:54 PM,33.1,30.0,89,29.62,0.8,West,9.2,25.3,0.06,Snow,Light Snow,280,2013-02-20 04:54:00